Presure
103 121 115 114 114 149 146 127 134 129 142 132 122 132 138 143 146 162 160 155 155 135 128 139 126 129 158 160 154 156 141 163 162 161 158 158 165 166 152 124 158 144 147
128 136 114 139 110 133 130 152 144 147 145 152 137 153 149 154 153 150 152 140 156 116 154 149 151 148 141 123 157 130 152 155 118 126 133 133 125 156 160 143 138 151 116
106 118 135 119 140 134 140 139 142 132 144 155 139 144 151 142 140 137 150 147 136 147 143 147 144 132 144 149 146 153 132 126 112 133 135 128 130 127 121 146 140 140 107
140 141 143 128 122 124 135 134 138 141 148 137 134 143 141 133 138 144 151 140 149 142 140 149 138 141 137 141 140 134 141 139 124 142 141 137 132 103 119 145 141 136 141
128 143 140 132 133 122 139 141 143 136 142 135 134 137 131 130 133 132 133 129 121 117 134 126 142 131 134 130 122 140 134 133 118 160 157 142 159 154 139 159 150 151 158
93 136 106 117 120 123 133 122 146 137 143 139 157 143 135 131 134 139 139 114 148 131 142 125 155 117 161 157 154 154 155 151 161 144 135 150 154 159 121 123 155 162 167
133 139 104 150 139 133 143 132 122 132 143 133 125 121 144 142 150 151 146 149 146 139 125 144 139 129 151 126 139 121 162 146 149 143 108 147 165 167 168 171 172 163 151
126 123 149 129 134 125 135 134 132 135 131 135 124 126 125 131 137 131 132 136 144 142 145 130 149 123 123 128 138 122 135 138 125 153 143 143 162 174 171 180 178 165 173
147 146 103 102 122 92 145 140 141 137 129 119 129 133 135 141 139 129 139 137 144 140 143 145 152 144 120 157 112 134 150 132 139 147 135 138 167 179 165 178 181 87 187
140 143 141 143 142 142 126 131 102 96 96 94 141 96 134 140 146 147 133 141 151 145 158 166 153 144 149 159 154 159 162 154 151 149 168 132 165 165 160 186 186 87 180
137 140 142 145 146 145 144 129 141 134 143 148 151 148 148 141 149 145 144 133 147 144 144 146 149 164 143 152 149 143 165 150 153 150 166 157 171 183 182 184 186 87 161
136 132 140 151 150 145 140 145 149 147 141 145 157 156 144 139 152 149 146 148 154 149 151 142 146 152 150 157 162 147 177 172 166 160 139 170 184 189 194 192 224 153 210
146 128 145 139 116 97 140 140 135 153 154 143 146 163 157 127 140 141 162 153 149 146 138 145 161 152 159 151 155 190 179 175 162 179 181 192 181 178 242 251 248 246 245
142 137 90 96 138 95 145 141 148 142 157 137 97 150 102 103 148 150 143 150 150 154 171 194 189 193 190 181 150 178 185 175 179 196 185 206 247 237 230 212 221 224 90
122 132 139 143 146 139 84 114 99 95 99 127 136 101 167 159 148 149 151 164 173 174 152 191 192 145 170 187 185 184 183 186 204 212 198 229 242 242 232 243 241 187 199
150 143 143 145 139 139 146 148 139 149 150 88 157 161 172 172 172 186 187 150 170 164 179 172 170 185 173 178 196 186 178 187 206 204 225 226 232 226 225 218 221 229 230
166 169 164 163 162 168 168 159 163 167 84 162 164 171 145 183 165 162 157 158 165 206 190 184 189 185 188 187 175 177 185 205 212 212 219 222 214 212 219 201 221 208 210
179 180 181 180 181 180 179 171 167 166 171 177 182 185 183 181 178 193 192 189 187 184 186 176 171 173 170 174 178 203 210 207 200 210 211 223 214 216 220 225 204 206 165
173 171 172 172 188 186 182 180 180 179 177 192 192 190 189 189 188 183 178 175 168 173 168 168 178 190 184 192 214 216 206 203 213 210 207 213 216 207 217 222 213 221 215
173 172 173 177 174 173 180 192 194 189 184 190 191 187 180 178 174 164 171 172 165 166 204 204 210 194 193 203 205 202 201 209 204 208 214 216 205 204 210 212 221 214 216
183 183 183 182 183 186 181 187 189 162 190 186 179 187 174 178 186 184 187 192 195 216 208 208 196 196 198 194 212 202 206 203 219 209 217 212 203 201 207 204 226 218 207
188 192 193 197 199 197 199 186 183 183 183 183 181 183 186 185 190 203 195 206 217 210 203 210 202 202 201 211 197 200 205 208 209 210 203 199 200 203 209 216 211 220 221
187 188 190 202 199 204 213 204 192 194 197 193 189 191 198 200 198 211 216 216 207 205 213 211 208 213 206 200 201 208 212 199 205 202 200 203 207 220 206 216 221 213 217
187 181 184 183 193 207 215 216 210 192 195 202 204 202 215 220 222 216 218 214 211 217 214 213 208 201 205 196 208 198 199 201 199 179 210 210 210 208 219 223 212 217 219
195 161 207 188 227 221 220 163 166 216 213 216 224 226 222 221 222 220 214 214 211 209 203 196 204 203 212 200 201 199 198 198 206 210 204 216 222 221 214 219 216 215 224
183 195 220 210 153 177 180 204 167 163 162 217 224 223 216 215 213 211 195 200 206 202 201 201 199 197 194 191 208 202 196 207 213 213 221 222 225 221 218 221 218 215 224
Wind_Speed
26 32 27 27 26 41 32 31 35 33 40 35 32 39 36 36 34 39 44 47 47 44 37 45 33 37 50 55 53 54 45 54 55 56 56 57 57 58 55 30 59 48 51
39 44 27 43 27 35 35 41 43 44 44 40 35 41 44 41 44 46 43 37 43 26 49 49 54 56 45 29 56 36 56 59 28 33 37 38 32 58 59 48 39 55 28
28 33 44 34 46 42 45 45 46 38 44 37 43 46 45 47 46 43 49 51 43 52 50 50 51 40 52 54 52 56 41 35 34 41 46 37 36 37 34 52 47 47 26
50 51 49 42 38 36 45 43 46 48 48 45 45 47 49 41 46 50 51 47 54 50 49 55 47 52 49 54 51 45 53 52 35 56 54 47 46 27 37 56 49 46 52
45 53 54 48 48 34 50 50 52 46 51 48 46 49 43 43 47 46 46 46 33 32 48 41 54 42 46 41 36 55 47 49 38 68 66 57 69 65 55 70 64 65 69
28 56 33 34 36 40 48 36 55 52 55 53 54 56 52 45 51 56 56 32 62 43 57 39 61 38 65 65 65 66 66 63 71 59 48 63 66 72 46 46 64 73 78
56 59 32 57 57 52 53 52 42 50 53 45 42 39 56 55 60 61 60 61 60 56 41 60 56 47 65 43 54 41 72 63 64 58 38 62 81 80 81 83 84 73 60
49 47 61 53 57 50 59 57 56 58 50 51 45 45 45 50 53 49 51 53 54 54 58 48 63 43 44 49 58 48 57 57 50 72 61 60 78 84 84 87 87 77 85
65 64 33 35 46 20 63 60 60 57 55 42 51 54 56 61 61 53 58 59 65 61 65 66 69 65 47 74 42 56 71 53 58 72 59 59 82 85 82 86 86 24 90
62 67 65 67 67 66 54 57 32 26 24 24 66 29 60 65 68 69 55 64 70 67 75 78 74 66 70 80 76 81 84 77 77 75 87 58 85 82 79 89 89 27 87
61 65 70 72 72 71 72 58 65 60 68 73 74 71 71 67 70 70 70 59 73 69 68 70 74 81 68 75 74 69 85 76 78 78 88 84 89 89 88 88 88 32 67
61 60 68 78 78 71 66 73 76 74 69 71 79 78 71 67 75 73 72 74 79 77 79 67 71 78 76 81 87 73 87 88 88 89 63 90 92 91 91 92 75 45 78
79 60 79 70 48 31 69 69 63 81 81 71 73 82 80 59 68 70 84 81 77 76 66 78 88 81 86 77 82 84 85 87 90 92 93 92 90 73 66 61 61 58 60
79 71 32 33 69 35 79 70 79 74 83 68 29 79 36 38 81 81 75 79 79 85 93 95 86 86 85 85 76 85 87 91 91 89 86 86 65 65 65 59 61 58 41
60 70 74 77 81 73 38 53 40 36 38 61 70 45 89 91 79 81 83 89 90 92 71 90 86 77 82 85 85 86 87 89 85 81 87 74 64 58 57 57 57 52 55
91 84 80 79 70 72 84 76 70 84 88 38 89 90 92 93 93 95 95 77 88 86 92 89 86 86 86 87 82 82 87 88 84 83 75 69 61 60 58 54 52 51 52
95 94 92 91 91 93 93 93 92 92 30 89 90 95 79 96 89 85 84 86 90 85 93 93 89 88 87 84 85 86 87 83 79 78 76 69 67 65 59 54 54 52 51
94 94 97 97 96 97 97 94 92 92 95 97 99 97 96 95 93 93 90 91 92 92 90 87 85 84 86 87 88 87 79 81 80 79 76 68 68 66 61 60 61 59 58
92 91 90 91 96 98 99 97 97 97 96 98 96 94 92 90 89 90 91 91 87 89 86 86 89 89 89 90 87 81 80 82 81 77 74 70 64 67 65 63 63 62 60
89 88 89 91 91 90 93 96 97 98 97 94 93 91 91 89 90 85 91 92 89 91 94 93 89 86 87 87 84 82 80 82 79 77 75 69 70 68 69 66 65 65 63
97 98 98 98 98 100 95 95 95 79 96 93 90 93 88 91 94 96 100 98 98 89 89 86 86 87 86 85 86 81 81 82 81 79 76 73 72 70 72 70 69 67 67
95 96 96 98 101 101 103 96 92 92 94 95 93 96 97 95 97 101 100 101 91 92 88 88 87 86 88 84 83 82 81 81 81 79 78 76 75 75 73 76 72 71 68
89 90 94 97 98 101 98 101 97 98 98 97 96 98 102 102 100 101 96 93 94 93 94 90 90 89 84 84 84 84 84 81 82 81 82 83 82 88 77 80 82 74 74
87 83 84 82 91 97 97 98 101 94 98 103 102 101 106 102 99 98 96 94 94 96 93 92 88 84 85 81 85 83 83 84 82 77 92 90 89 84 89 82 79 81 79
92 70 94 84 90 92 90 73 75 96 99 102 101 100 101 100 99 96 97 95 95 94 90 86 90 89 90 83 86 85 86 86 97 97 92 99 93 91 88 88 85 83 82
80 84 85 89 72 79 80 86 77 78 79 94 95 97 98 100 100 95 90 92 94 93 93 91 91 91 87 85 96 90 86 98 98 96 94 93 90 90 89 87 86 85 83
Wind_Direction
235 246 249 250 254 240 247 252 259 271 260 270 261 269 268 265 264 258 259 264 266 279 271 282 267 295 276 276 282 283 284 283 283 285 289 289 289 288 293 273 290 289 294
250 246 246 249 246 257 262 246 255 254 258 254 267 255 258 257 258 263 263 271 265 262 269 273 275 279 282 283 280 287 286 287 270 281 293 295 279 294 293 291 289 293 280
236 248 248 255 252 257 256 261 261 270 260 258 269 267 261 265 276 282 269 271 283 276 281 279 286 290 286 285 284 286 292 282 275 291 290 279 287 285 276 294 291 288 266
243 245 244 252 263 266 262 264 264 264 261 270 275 269 273 277 281 276 272 280 276 282 285 281 289 288 290 291 292 291 292 293 277 292 292 289 281 269 276 295 289 279 284
254 239 246 256 256 265 257 257 258 264 264 271 275 274 278 280 282 282 285 284 273 269 283 278 289 288 291 286 270 292 291 283 269 290 291 290 292 291 287 291 287 289 290
229 249 241 254 264 268 264 267 257 264 261 267 261 267 275 280 281 280 281 265 279 287 285 283 282 269 283 284 286 286 288 291 290 295 289 298 297 294 272 273 291 292 293
250 247 249 247 251 253 255 265 261 264 263 268 268 273 269 271 272 272 276 277 280 284 281 287 289 284 288 282 287 280 287 293 294 294 283 295 294 292 292 291 291 292 288
252 252 250 259 257 257 260 262 265 269 270 268 263 269 270 272 273 274 275 278 275 275 279 282 284 274 273 285 287 283 289 285 273 294 293 290 291 288 290 287 287 290 291
254 255 253 255 255 248 259 260 261 265 270 257 270 272 274 277 278 277 282 282 283 284 285 286 287 286 284 284 283 286 291 278 287 291 282 281 290 288 288 288 286 250 286
259 257 260 261 261 263 256 264 260 261 261 263 272 266 277 277 279 279 277 284 282 284 283 282 286 286 287 286 290 288 288 288 289 289 290 278 289 288 288 287 286 245 288
256 260 259 259 260 263 265 267 269 269 272 272 271 273 273 278 274 278 280 277 284 284 287 287 288 285 284 285 288 287 287 287 287 287 288 288 288 287 287 287 287 252 280
257 255 259 259 261 264 267 269 269 270 271 273 272 272 275 277 277 279 280 281 283 285 285 283 286 285 288 286 286 287 286 285 285 286 280 287 288 288 288 288 289 267 287
255 257 260 261 261 257 266 268 269 270 271 273 274 274 273 274 277 279 278 280 282 282 280 283 283 285 285 287 287 288 287 286 286 287 288 289 288 287 297 297 296 294 291
255 257 239 250 262 261 267 269 270 271 270 272 272 274 275 272 277 278 278 280 281 281 283 287 285 286 286 285 284 287 288 286 287 291 288 290 301 300 298 295 296 297 252
254 257 259 261 264 265 240 265 268 266 271 268 273 271 274 275 278 279 280 280 282 284 279 284 286 282 285 287 287 287 288 290 295 295 290 301 301 305 303 303 300 286 288
254 258 260 261 265 266 266 266 268 270 271 255 273 275 276 276 277 280 280 277 280 280 284 283 283 286 285 286 288 287 286 291 295 294 302 302 303 301 300 299 302 302 299
258 260 260 261 261 264 265 265 268 272 277 273 275 275 274 277 276 277 278 278 280 284 283 284 285 286 287 287 285 286 289 294 297 298 301 302 298 299 301 294 300 291 295
258 260 262 263 264 265 265 267 268 270 273 274 275 275 275 277 278 279 279 281 281 281 282 284 286 286 285 285 286 294 296 295 293 300 299 300 299 301 303 301 290 290 279
257 259 261 263 264 266 267 269 269 270 272 272 273 274 275 276 277 278 279 280 280 282 283 285 288 289 287 289 296 294 294 295 297 298 297 300 299 298 303 302 296 299 295
260 262 264 264 266 266 268 268 268 270 271 272 272 273 274 276 277 278 280 281 281 284 288 288 288 287 288 292 292 292 293 295 294 297 299 300 296 296 300 300 302 296 296
261 262 264 266 265 266 267 268 268 270 270 272 274 275 276 277 278 278 278 282 285 287 286 288 285 287 289 288 290 291 294 292 297 297 299 297 293 293 298 293 304 296 291
262 265 267 267 268 267 268 267 268 270 271 272 274 275 276 277 280 283 284 287 285 285 285 285 283 284 284 287 287 288 292 294 295 296 292 291 291 293 297 300 298 299 298
262 263 264 267 268 268 269 267 270 272 273 274 276 278 279 281 282 283 283 283 282 283 283 283 283 284 285 287 288 293 293 289 295 292 291 294 296 299 295 298 299 295 296
261 264 265 268 269 269 269 270 270 274 276 277 278 279 280 280 280 281 281 281 282 283 283 283 283 282 284 282 289 285 287 290 289 290 295 296 297 296 297 296 296 297 297
258 263 263 269 268 270 271 272 273 273 274 276 278 279 279 279 279 279 280 280 280 281 281 280 283 283 286 283 285 286 287 288 294 292 292 292 293 293 293 294 294 293 293
263 263 268 268 270 272 273 272 274 275 275 277 278 278 279 280 280 278 274 276 276 277 277 278 280 280 279 279 286 286 284 289 288 287 287 288 290 292 291 289 290 291 292